Regional Weather Roundup
Issued by NWS Burlington, VT

Home | Current Version | Previous Version | Text Only | Print | Product List | Glossary On
Versions: 1 2 3 4 5 6 7 8 9 10 11 12 13 14 15 16 17 18 19 20 21 22 23 24 25 26 27 28 29 30 31 32 33 34 35 36 37 38 39 40 41 42 43 44 45 46 47 48 49 50
000
ASUS41 KBTV 290630
RWRBTV
VERMONT REGIONAL WEATHER ROUNDUP
NATIONAL WEATHER SERVICE BURLINGTON VT
100 AM EST SAT NOV 29 2014

NOTE: "FAIR" INDICATES FEW OR NO CLOUDS BELOW 12,000 FEET WITH NO
SIGNIFICANT WEATHER AND/OR OBSTRUCTIONS TO VISIBILITY.

* THESE REPORTS ARE NOT UNDER NWS QUALITY CONTROL AND/OR DO NOT
  REPORT WEATHER SUCH AS PRECIPITATION AND FOG.

VTZ001>019-290700-
_____VERMONT_____


CITY           SKY/WX    TMP DP  RH WIND       PRES   REMARKS
BURLINGTON     CLOUDY    20  13  74 CALM      30.21S
6HR MIN TEMP:  14; 6HR MAX TEMP:  26;

MONTPELIER     LGT SNOW  18  13  80 W5        30.18R
6HR MIN TEMP:  13; 6HR MAX TEMP:  19; 6HR PCP: TRACE;

MORRISVILLE    CLOUDY    14  11  87 CALM      30.18S
6HR MIN TEMP:  13; 6HR MAX TEMP:  20; 6HR PCP: TRACE;

ST. JOHNSBURY*   N/A     16  12  84 MISG      30.17R
6HR MIN TEMP:  15; 6HR MAX TEMP:  20;

LYNDONVILLE*   LGT SNOW  17  11  78 CALM      30.15S
6HR MIN TEMP:  15; 6HR MAX TEMP:  18;

MIDDLEBURY*    FAIR      11  10  97 CALM      30.20S
6HR MIN TEMP:  12; 6HR MAX TEMP:  21;

RUTLAND*       CLEAR     12   7  79 CALM      30.18S
6HR MIN TEMP:  12; 6HR MAX TEMP:  21;

HIGHGATE*      MOCLDY    12  10  90 CALM      30.21S
6HR MIN TEMP:  11; 6HR MAX TEMP:  23;

NEWPORT*       LGT SNOW  14  12  89 CALM      30.16R
6HR MIN TEMP:  14; 6HR MAX TEMP:  18;

BENNINGTON     CLOUDY    21  15  78 CALM      30.20S
6HR MIN TEMP:  21; 6HR MAX TEMP:  23; 6HR PCP: TRACE;

SUTTON*          N/A     16 N/A N/A MISG        N/A
GALLUP MILLS*    N/A     14 N/A N/A MISG        N/A
UNION VILLAGE*   N/A     12 N/A N/A MISG        N/A
MT. MANSFIELD*   N/A      7 N/A N/A NW16        N/A  WCI -11

_____LAKE CHAMPLAIN_____


CITY           SKY/WX    TMP DP  RH WIND       PRES   REMARKS
BURTON ISLAND*   N/A     27  16  63 SW5         N/A
COLCHESTER RF*   N/A     27  18  69 W10         N/A  WCI  17
DIAMOND ISL*     N/A     21  18  86 SE8         N/A

$$

NYZ007-026>031-035-052-083-290700-
_____NORTHERN NEW YORK_____


CITY           SKY/WX    TMP DP  RH WIND       PRES   REMARKS
PLATTSBURGH    CLEAR     11   8  88 CALM      30.20F
6HR MIN TEMP:  11; 6HR MAX TEMP:  24;

SARANAC LAKE   CLEAR      4  52 100 SW3       30.08S
6HR MIN TEMP:   2; 6HR MAX TEMP:  14;

MASSENA        CLEAR     14  11  87 CALM      30.21S
6HR MIN TEMP:  14; 6HR MAX TEMP:  17;

OGDENSBURG*    CLEAR     18  16  93 CALM      30.20R
POTSDAM*       CLEAR     18  14  86 SW5       30.20R
STARK FALLS*     N/A     16 N/A N/A S6          N/A
WATERTOWN      CLOUDY    26  12  55 CALM      30.21S
6HR MIN TEMP:  23; 6HR MAX TEMP:  28;

FT DRUM        CLOUDY    21  15  79 S6        30.18S
6HR MIN TEMP:  18; 6HR MAX TEMP:  21;

ALBANY         PTCLDY    16  10  77 CALM      30.25R
6HR MIN TEMP:  15; 6HR MAX TEMP:  25; 6HR PCP: TRACE;

GLENS FALLS    MOCLDY    11   7  84 CALM      30.23S
6HR MIN TEMP:  10; 6HR MAX TEMP:  22;


$$
NHZ002-005-011-290700-
_____NEW HAMPSHIRE_____


CITY           SKY/WX    TMP DP  RH WIND       PRES   REMARKS
LEBANON        CLEAR      9   5  84 CALM      30.20R
6HR MIN TEMP:   6; 6HR MAX TEMP:  19;

KEENE          CLEAR     12  10  92 CALM      30.20S
6HR MIN TEMP:  12; 6HR MAX TEMP:  27;

MT WASHINGTON  BLWGSNOW  -4  -4 100 NW37G48     N/A  VSB 1/16WCI -33
6HR MIN TEMP:  -6; 6HR MAX TEMP:  -1; 6HR PCP:  0.03;

PLYMOUTH       CLOUDY    20  18  91 CALM      30.19R
6HR MIN TEMP:  15; 6HR MAX TEMP:  23;

WHITEFIELD     CLOUDY    18  12  77 SW3       30.14S
6HR MIN TEMP:  14; 6HR MAX TEMP:  21; 6HR PCP: TRACE;


$$

_____REGIONAL QUEBEC LOCATIONS_____


CITY           SKY/WX    TMP DP  RH WIND       PRES   REMARKS
MONTREAL       MOCLDY    19  12  73 VRB2      30.20S
QUEBEC CITY    CLEAR     10   5  79 SW8       30.15R
SHERBROOKE     FLURRIES  18  14  86 W10       30.14R WCI   6

_____REGIONAL ONTARIO LOCATIONS_____


CITY           SKY/WX    TMP DP  RH WIND       PRES   REMARKS
OTTAWA         PTCLDY    14  12  92 SW3       30.19R

______KEY______
VSB  - VISIBILITY IN MILES
WCI  - WIND CHILL INDEX
HX   - HEAT INDEX
$$



USA.gov is the U.S. government's official web portal to all federal, state and local government web resources and services.